Regional Weather Roundup
Issued by NWS Charleston, SC

Current Version | Previous Version | Graphics & Text | Print | Product List | Glossary On
Versions: 1 2 3 4 5 6 7 8 9 10 11 12 13 14 15 16 17 18 19 20 21 22 23 24 25 26 27 28 29 30 31 32 33 34 35 36 37 38 39 40 41 42 43 44 45 46 47 48 49 50
000
ASUS42 KCHS 251810
RWRCHS

REGIONAL WEATHER ROUNDUP
NATIONAL WEATHER SERVICE CHARLESTON SC
200 PM EDT FRI JUL 25 2014

NOTE: "FAIR" INDICATES FEW OR NO CLOUDS BELOW 12,000 FEET WITH NO
SIGNIFICANT WEATHER AND/OR OBSTRUCTIONS TO VISIBILITY.

NOT ALL STATIONS ARE QUALITY CONTROLLED BY THE NATIONAL
WEATHER SERVICE. USE DATA WITH CAUTION...ESPECIALLY
DEWPOINT OBSERVATIONS.

SCZ027-030-031-034>040-042>050-251900-
...SOUTH CAROLINA...

CITY           SKY/WX    TMP DP  RH WIND       PRES   REMARKS
N CHARLESTON   PTSUNNY   93  73  52 SW9       29.98F HX 102
6HR MIN TEMP:  80; 6HR MAX TEMP:  93; 6HR PCP: TRACE;

WATERFRONT PRK   N/A     88 N/A N/A S15         N/A
FORT JOHNSON   NOT AVBL
MOUNT PLEASANT FAIR      91  79  66 S13       29.97F HX 107
JOHNS ISLAND   PTCLDY    90  72  55 S15       29.99F HX  96
PINOPOLIS      NOT AVBL
MONCKS CORNER  LGT RAIN  82  79  89 CALM      30.00S HX  93
SUMMERVILLE    TSTM      73  73 100 CALM      30.03R VSB 3/4
BEAUFORT MCAS  PTSUNNY   91  74  57 VRB5      29.99F HX 100
6HR MIN TEMP:  80; 6HR MAX TEMP:  93;

BEAUFORT ARPT  FAIR      90  75  62 SW8       29.99F HX 100
HILTON HEAD IS MOSUNNY   88  75  66 S5        30.02F HX  97
GEORGETOWN     NOT AVBL
WALTERBORO     TSTM      79 N/A N/A W6        30.01S
ORANGEBURG     PTSUNNY   86  72  62 NE13      30.00S HX  92
6HR MIN TEMP:  77; 6HR MAX TEMP:  90;

BARNWELL       MOCLDY    91  72  52 W9        30.00F HX  98
AIKEN          LGT RAIN  81  77  89 W7        30.05F
MANNING        FAIR      88  79  74 NE3       29.99F HX 102
KINGSTREE      NOT AVBL
COLUMBIA       PTSUNNY   88  71  57 N6        30.00F HX  94
6HR MIN TEMP:  78; 6HR MAX TEMP:  88;

SUMTER         PTSUNNY   82  75  78 NE7       30.00F
6HR MIN TEMP:  73; 6HR MAX TEMP:  81;

FLORENCE       PTSUNNY   82  71  69 CALM      30.02F
6HR MIN TEMP:  72; 6HR MAX TEMP:  82;

MYRTLE BEACH   PTSUNNY   82  75  78 E12       30.01F
N MYRTLE BEACH PTSUNNY   83  73  72 VRB6      30.02F
6HR MIN TEMP:  76; 6HR MAX TEMP:  83;


$$

GAZ063-065-086>088-099>101-113>116-118-119-134-136>141-150-251900-
...GEORGIA...

CITY           SKY/WX    TMP DP  RH WIND       PRES   REMARKS
SAVANNAH ARPT  PTSUNNY   91  72  53 VRB5      30.01F HX  98
6HR MIN TEMP:  79; 6HR MAX TEMP:  93;

HUNTER AAF     MOSUNNY   92  73  54 S9        29.99F HX 100
6HR MIN TEMP:  78; 6HR MAX TEMP:  92;

FORT STEWART   MOSUNNY   92  71  50 SW9       30.01F HX  98
6HR MIN TEMP:  78; 6HR MAX TEMP:  92;

STATESBORO     NOT AVBL
SYLVANIA       PTCLDY    89  77  68 NW8       30.01F HX 102
CLAXTON        FAIR      91  75  59 W9        30.00F HX 102
THOMSON        MOSUNNY   89  79  70 N7        30.06F HX 104
AUGUSTA-BUSH   PTSUNNY   89  71  55 W6        29.99F HX  95
6HR MIN TEMP:  76; 6HR MAX TEMP:  90;

AUGUSTA-DANIEL PTSUNNY   89  71  55 NW8       30.01F HX  95
SWAINSBORO     MOCLDY    91  73  55 W6        30.02S HX 100
VIDALIA          N/A     91  73  55 W9        30.01F HX 100
ALMA           MOSUNNY   94  68  42 SW13G18   30.02F HX  98
6HR MIN TEMP:  76; 6HR MAX TEMP:  94;

WAYCROSS       MOSUNNY   94  74  51 W9G16     30.03F HX 104
JESUP          NOT AVBL
BRUNSWICK      PTSUNNY   91  70  49 W9        30.04S HX  97
SAINT SIMONS   MOSUNNY   91  71  51 SW10      30.03F HX  97
6HR MIN TEMP:  79; 6HR MAX TEMP:  91;


$$

SCZ027-028-034-036>038-045-046-048>050-GAZ119-141-251900-
...LAKE AND SUPPLEMENTAL COASTAL OBSERVATIONS...

STATION/POSITION TIME  TEMP    WIND        PRES    WAVE   SWELL
                       AIR SEA DIR/SP/G            HT/PER HT/PER/DIR
                 (UTC) (F)     (DEG/KT/KT) (MB)    (FT/S) (FT/S/D)
UPR LAKE MARION  NOT AVBL
WINYAH BAY       1700   84      90/  8     1016.0S
LAKE MURRAY      1700   81     340/  2/  4 1016.3F
ACE BASIN NERRS  1700   89     200/  1     1017.0S
FORT PULASKI     1800   89     210/  6/ 10 1016.7S
SAPELO ISLAND    1700   90     250/  8     1018.0S

$$

ANZ835-935-AMZ111-154-330-350-352-354-374-450-454-472-251900-
...C-MAN AND BUOY OBSERVATIONS...

STATION/POSITION TIME  TEMP    WIND        PRES    WAVE   SWELL
                       AIR SEA DIR/SP/G            HT/PER HT/PER/DIR
                 (UTC) (F)     (DEG/KT/KT) (MB)    (FT/S) (FT/S/D)
FOLLY BEACH CMAN 1700   86     190/  8/ 10 1016.8F
BUOY 41004       1800   82 83  210/ 10/ 12 1016.1F   3/ 5   3/ 5
BUOY 41008       1800   84 85  210/  8/ 10 1017.4F   2/ 7   2/110/ 7
5E ST. MARYS GA  1800      87                N/A     1/ 8
FRYING PAN BUOY  NOT AVBL
BUOY 41025       1800          VRB  8/  8  1017.1S   2/ 7   2/160/ 7
CAPE LOOKOUT NC  1700   77      50/ 10/ 11 1017.3F
BUOY 41002       1749   78 82  280/ 10/ 12 1019.1F   4/ 8   3/240/ 8
BUOY 41010       1800   84 84  200/  8/ 10 1019.7F   3/ 7   2/130/ 7
BUOY 41012       NOT AVBL
ST AUGUSTINE FL  1800   81      70/ 11/ 12 1018.9F
CAPERS NEARSHORE 1700   84     230/ 10/ 12   N/A
FRIPP NEARSHORE  NOT AVBL


$$


USA.gov is the U.S. government's official web portal to all federal, state and local government web resources and services.